Satellite: NOAA-12
Catalog number: 21263
Epoch time:      10195.79287884
Element set:    0634
Inclination:      098.7644 deg
RA of node:       208.9472 deg
Eccentricity:    0.0013444
Arg of perigee:   086.0244 deg
Mean anomaly:     274.2467 deg
Mean motion:   14.25643761 rev/day
Decay rate:        3.9e-07 rev/day^2
Epoch rev:           99633
Checksum:              333

Satellite: MET-3/5
Catalog number: 21655
Epoch time:      10195.75687860
Element set:     861
Inclination:      082.5604 deg
RA of node:       289.1574 deg
Eccentricity:    0.0012168
Arg of perigee:   281.6850 deg
Mean anomaly:     078.2943 deg
Mean motion:   13.17025381 rev/day
Decay rate:        5.1e-07 rev/day^2
Epoch rev:           90930
Checksum:              316

Satellite: MET-2/21
Catalog number: 22782
Epoch time:      10195.62603382
Element set:    0830
Inclination:      082.5458 deg
RA of node:       230.6727 deg
Eccentricity:    0.0021534
Arg of perigee:   329.6812 deg
Mean anomaly:     030.3105 deg
Mean motion:   13.83645309 rev/day
Decay rate:        2.0e-07 rev/day^2
Epoch rev:           85187
Checksum:              284

Satellite: OKEAN-4
Catalog number: 23317
Epoch time:      10195.71867467
Element set:    0286
Inclination:      082.5425 deg
RA of node:       328.1587 deg
Eccentricity:    0.0023050
Arg of perigee:   147.3691 deg
Mean anomaly:     212.8945 deg
Mean motion:   14.82834325 rev/day
Decay rate:        6.0e-07 rev/day^2
Epoch rev:           85053
Checksum:              308

Satellite: NOAA-14
Catalog number: 23455
Epoch time:      10195.81364358
Element set:    0125
Inclination:      098.8779 deg
RA of node:       276.3651 deg
Eccentricity:    0.0009599
Arg of perigee:   152.2897 deg
Mean anomaly:     207.8786 deg
Mean motion:   14.13789740 rev/day
Decay rate:        7.0e-08 rev/day^2
Epoch rev:           80140
Checksum:              344

Satellite: NOAA-15
Catalog number: 25338
Epoch time:      10196.45392413
Element set:     447
Inclination:      098.6197 deg
RA of node:       182.8728 deg
Eccentricity:    0.0010622
Arg of perigee:   358.6020 deg
Mean anomaly:     001.5140 deg
Mean motion:   14.24839880 rev/day
Decay rate:      -1.06e-06 rev/day^2
Epoch rev:           63277
Checksum:              302

Satellite: RESURS
Catalog number: 25394
Epoch time:      10196.52004837
Element set:     553
Inclination:      098.3043 deg
RA of node:       213.0569 deg
Eccentricity:    0.0002035
Arg of perigee:   111.6340 deg
Mean anomaly:     248.5066 deg
Mean motion:   14.24206035 rev/day
Decay rate:        1.2e-07 rev/day^2
Epoch rev:           62438
Checksum:              255

Satellite: FENGYUN1
Catalog number: 25730
Epoch time:      10195.44758117
Element set:    0091
Inclination:      098.7855 deg
RA of node:       159.6918 deg
Eccentricity:    0.0020929
Arg of perigee:   187.6528 deg
Mean anomaly:     172.4349 deg
Mean motion:   14.08199602 rev/day
Decay rate:       5.55e-06 rev/day^2
Epoch rev:           57552
Checksum:              339

Satellite: OKEAN-0
Catalog number: 25860
Epoch time:      10195.50827415
Element set:    0048
Inclination:      097.8336 deg
RA of node:       167.2798 deg
Eccentricity:    0.0001496
Arg of perigee:   047.5029 deg
Mean anomaly:     312.6303 deg
Mean motion:   14.73648758 rev/day
Decay rate:        2.7e-07 rev/day^2
Epoch rev:           59092
Checksum:              320

Satellite: NOAA-16
Catalog number: 26536
Epoch time:      10195.85090302
Element set:    0924
Inclination:      099.1697 deg
RA of node:       213.9706 deg
Eccentricity:    0.0009612
Arg of perigee:   259.4950 deg
Mean anomaly:     100.5131 deg
Mean motion:   14.12566359 rev/day
Decay rate:      -2.24e-06 rev/day^2
Epoch rev:           50573
Checksum:              300

Satellite: NOAA-17
Catalog number: 27453
Epoch time:      10195.81772900
Element set:    0922
Inclination:      098.4293 deg
RA of node:       245.1476 deg
Eccentricity:    0.0012662
Arg of perigee:   059.6033 deg
Mean anomaly:     300.6396 deg
Mean motion:   14.24173650 rev/day
Decay rate:       1.84e-06 rev/day^2
Epoch rev:           41863
Checksum:              304

Satellite: NOAA-18
Catalog number: 28654
Epoch time:      10195.87748392
Element set:    0407
Inclination:      098.9506 deg
RA of node:       142.0637 deg
Eccentricity:    0.0014194
Arg of perigee:   339.6895 deg
Mean anomaly:     020.3678 deg
Mean motion:   14.11370729 rev/day
Decay rate:      -1.44e-06 rev/day^2
Epoch rev:           26534
Checksum:              332

Satellite: NOAA-19
Catalog number: 33591
Epoch time:      10195.87153695
Element set:    0604
Inclination:      098.7887 deg
RA of node:       137.4057 deg
Eccentricity:    0.0013487
Arg of perigee:   207.9398 deg
Mean anomaly:     152.1023 deg
Mean motion:   14.11067319 rev/day
Decay rate:       -4.2e-07 rev/day^2
Epoch rev:           07381
Checksum:              320

/EX
SB KEPS @ AMSAT  $ORB10196.M
Orbital Elements  10196.MISC

HR AMSAT ORBITAL ELEMENTS FOR MANNED AND MISCELLANEOUS SATELLITES
FROM WA5QGD FORT WORTH,TX July 15, 2010
Send Subscribe/unsubscribe to KEPS at http://www.amsat.org/mailman/listinfo/kep
BID: ORB10196.M
TO ALL RADIO AMATEURS BT

